Time,TemperatureF,DewpointF,PressureIn,WindDirection,WindDirectionDegrees,WindSpeedMPH,WindSpeedGustMPH,Humidity,HourlyPrecipIn,Conditions,Clouds,dailyrainin,SoftwareType,DateUTC
2013-03-06 00:02:00,36.0,28.0,30.04,West,281,7.0,7.0,72,0.00,,,0.00,,2013-03-06 06:02:00,
2013-03-06 00:11:00,36.0,28.0,30.04,West,281,7.0,7.0,72,0.00,,,0.00,,2013-03-06 06:11:00,
2013-03-06 00:22:00,35.0,26.0,30.04,WNW,284,10.0,0.0,69,0.00,,,1.21,,2013-03-06 06:22:00,
2013-03-06 00:32:00,35.0,26.0,30.05,West,260,3.0,0.0,69,0.00,,,1.21,,2013-03-06 06:32:00,
2013-03-06 00:42:00,35.0,26.0,30.05,West,260,3.0,0.0,69,0.00,,,1.21,,2013-03-06 06:42:00,
2013-03-06 00:52:00,35.0,26.0,30.04,NW,314,6.0,6.0,68,0.00,,,1.21,,2013-03-06 06:52:00,
2013-03-06 01:01:00,35.0,26.0,30.04,NW,314,6.0,6.0,68,0.00,,,1.21,,2013-03-06 07:01:00,
2013-03-06 01:11:00,35.0,26.0,30.04,NW,314,6.0,6.0,68,0.00,,,1.21,,2013-03-06 07:11:00,
2013-03-06 01:22:00,34.0,25.0,30.05,WNW,298,3.0,0.0,68,0.00,,,1.21,,2013-03-06 07:22:00,
2013-03-06 01:31:00,34.0,25.0,30.05,WNW,298,3.0,0.0,68,0.00,,,1.21,,2013-03-06 07:31:00,
2013-03-06 01:42:00,34.0,25.0,30.05,WNW,298,3.0,0.0,68,0.00,,,1.21,,2013-03-06 07:42:00,
2013-03-06 01:52:00,33.0,24.0,30.06,West,269,3.0,6.0,69,0.00,,,1.21,,2013-03-06 07:52:00,
2013-03-06 02:01:00,33.0,24.0,30.06,NNW,332,6.0,6.0,70,0.00,,,1.21,,2013-03-06 08:01:00,
2013-03-06 02:11:00,33.0,24.0,30.06,NNW,332,6.0,6.0,70,0.00,,,1.21,,2013-03-06 08:11:00,
2013-03-06 02:21:00,34.0,25.0,30.06,South,179,0.0,0.0,70,0.00,,,1.21,,2013-03-06 08:21:00,
2013-03-06 02:31:00,34.0,26.0,30.06,West,267,6.0,10.0,71,0.00,,,1.21,,2013-03-06 08:31:00,
2013-03-06 02:42:00,34.0,26.0,30.06,West,267,6.0,10.0,71,0.00,,,1.21,,2013-03-06 08:42:00,
2013-03-06 02:52:00,34.0,26.0,30.06,NW,307,6.0,0.0,71,0.00,,,1.21,,2013-03-06 08:52:00,
2013-03-06 03:01:00,34.0,26.0,30.06,NW,315,2.0,0.0,71,0.00,,,1.21,,2013-03-06 09:01:00,
2013-03-06 03:12:00,34.0,26.0,30.06,NW,315,2.0,0.0,71,0.00,,,1.21,,2013-03-06 09:12:00,
2013-03-06 03:21:00,34.0,26.0,30.06,WNW,285,7.0,0.0,71,0.00,,,1.21,,2013-03-06 09:21:00,
2013-03-06 03:31:00,34.0,26.0,30.06,WNW,294,6.0,7.0,71,0.00,,,1.21,,2013-03-06 09:31:00,
2013-03-06 03:42:00,34.0,26.0,30.06,WNW,294,6.0,7.0,71,0.00,,,1.21,,2013-03-06 09:42:00,
2013-03-06 03:52:00,35.0,27.0,30.06,WSW,239,5.0,5.0,71,0.00,,,1.21,,2013-03-06 09:52:00,
2013-03-06 04:01:00,35.0,27.0,30.06,West,260,8.0,8.0,72,0.00,,,1.21,,2013-03-06 10:01:00,
2013-03-06 04:11:00,35.0,27.0,30.06,West,260,8.0,8.0,72,0.00,,,1.21,,2013-03-06 10:11:00,
2013-03-06 04:21:00,35.0,27.0,30.07,WNW,291,5.0,0.0,72,0.00,,,1.21,,2013-03-06 10:21:00,
2013-03-06 04:31:00,34.0,26.0,30.08,West,262,4.0,5.0,73,0.00,,,1.21,,2013-03-06 10:31:00,
2013-03-06 04:42:00,34.0,26.0,30.08,West,262,4.0,5.0,73,0.00,,,1.21,,2013-03-06 10:42:00,
2013-03-06 04:52:00,35.0,27.0,30.08,NW,318,9.0,9.0,73,0.00,,,1.21,,2013-03-06 10:52:00,
2013-03-06 05:02:00,35.0,27.0,30.09,West,271,9.0,9.0,73,0.00,,,1.21,,2013-03-06 11:02:00,
2013-03-06 05:11:00,35.0,27.0,30.09,West,271,9.0,9.0,73,0.00,,,1.21,,2013-03-06 11:11:00,
2013-03-06 05:22:00,35.0,27.0,30.09,North,354,5.0,5.0,72,0.00,,,1.21,,2013-03-06 11:22:00,
2013-03-06 05:32:00,35.0,27.0,30.10,NW,311,7.0,14.0,72,0.00,,,1.21,,2013-03-06 11:32:00,
2013-03-06 05:42:00,35.0,27.0,30.10,NW,311,7.0,14.0,72,0.00,,,1.21,,2013-03-06 11:42:00,
2013-03-06 05:52:00,35.0,27.0,30.10,WNW,285,5.0,5.0,72,0.00,,,1.21,,2013-03-06 11:52:00,
2013-03-06 06:02:00,35.0,27.0,30.11,NNW,329,9.0,12.0,72,0.00,,,1.21,,2013-03-06 12:02:00,
2013-03-06 06:11:00,35.0,27.0,30.11,NNW,329,9.0,12.0,72,0.00,,,1.21,,2013-03-06 12:11:00,
2013-03-06 06:21:00,35.0,27.0,30.11,NW,311,7.0,7.0,72,0.00,,,1.21,,2013-03-06 12:21:00,
2013-03-06 06:32:00,34.0,26.0,30.12,NW,308,9.0,9.0,72,0.00,,,1.21,,2013-03-06 12:32:00,
2013-03-06 06:42:00,34.0,26.0,30.12,NW,308,9.0,9.0,72,0.00,,,1.21,,2013-03-06 12:42:00,
2013-03-06 06:52:00,34.0,26.0,30.13,WNW,284,10.0,10.0,73,0.00,,,1.21,,2013-03-06 12:52:00,
2013-03-06 07:02:00,35.0,28.0,30.13,WSW,248,8.0,8.0,74,0.00,,,1.21,,2013-03-06 13:02:00,
2013-03-06 07:12:00,35.0,28.0,30.13,WSW,248,8.0,8.0,74,0.00,,,1.21,,2013-03-06 13:12:00,
2013-03-06 07:22:00,34.0,27.0,30.14,North,359,10.0,10.0,74,0.00,,,1.21,,2013-03-06 13:22:00,
2013-03-06 07:32:00,34.0,27.0,30.15,WNW,285,10.0,10.0,75,0.00,,,1.21,,2013-03-06 13:32:00,
2013-03-06 07:42:00,34.0,27.0,30.15,WNW,285,10.0,10.0,75,0.00,,,1.21,,2013-03-06 13:42:00,
2013-03-06 07:52:00,34.0,27.0,30.16,NW,312,10.0,10.0,76,0.00,,,1.21,,2013-03-06 13:52:00,
2013-03-06 08:01:00,34.0,28.0,30.17,WSW,243,13.0,13.0,77,0.00,,,1.21,,2013-03-06 14:01:00,
2013-03-06 08:11:00,34.0,28.0,30.17,WSW,243,13.0,13.0,77,0.00,,,1.21,,2013-03-06 14:11:00,
2013-03-06 08:22:00,34.0,28.0,30.18,NW,307,9.0,9.0,77,0.00,,,1.21,,2013-03-06 14:22:00,
2013-03-06 08:32:00,35.0,29.0,30.19,West,276,7.0,7.0,77,0.00,,,1.21,,2013-03-06 14:32:00,
2013-03-06 08:42:00,35.0,28.0,30.19,NW,314,10.0,10.0,76,0.00,,,1.21,,2013-03-06 14:42:00,
2013-03-06 08:52:00,35.0,28.0,30.19,NW,314,10.0,10.0,76,0.00,,,1.21,,2013-03-06 14:52:00,
2013-03-06 09:02:00,36.0,29.0,30.19,NNW,339,4.0,5.0,74,0.00,,,1.21,,2013-03-06 15:02:00,
2013-03-06 09:11:00,36.0,29.0,30.19,NNW,339,4.0,5.0,74,0.00,,,1.21,,2013-03-06 15:11:00,
2013-03-06 09:21:00,36.0,28.0,30.20,NW,311,8.0,11.0,73,0.00,,,1.21,,2013-03-06 15:21:00,
2013-03-06 09:32:00,36.0,28.0,30.20,NNW,343,8.0,8.0,71,0.00,,,1.21,,2013-03-06 15:32:00,
2013-03-06 09:42:00,36.0,28.0,30.20,NNW,343,8.0,8.0,71,0.00,,,1.21,,2013-03-06 15:42:00,
2013-03-06 09:52:00,36.0,28.0,30.21,North,349,13.0,13.0,71,0.00,,,1.21,,2013-03-06 15:52:00,
2013-03-06 10:01:00,37.0,29.0,30.21,West,281,11.0,12.0,72,0.00,,,1.21,,2013-03-06 16:01:00,
2013-03-06 10:11:00,37.0,29.0,30.21,West,281,11.0,12.0,72,0.00,,,1.21,,2013-03-06 16:11:00,
2013-03-06 10:21:00,37.0,28.0,30.21,NW,326,5.0,9.0,71,0.00,,,1.21,,2013-03-06 16:21:00,
2013-03-06 10:32:00,38.0,29.0,30.21,West,267,7.0,13.0,70,0.00,,,1.21,,2013-03-06 16:32:00,
2013-03-06 10:42:00,38.0,29.0,30.21,West,267,7.0,13.0,70,0.00,,,1.21,,2013-03-06 16:42:00,
2013-03-06 10:52:00,38.0,29.0,30.22,North,4,10.0,10.0,69,0.00,,,1.21,,2013-03-06 16:52:00,
2013-03-06 11:01:00,39.0,30.0,30.21,NW,318,10.0,10.0,69,0.00,,,1.21,,2013-03-06 17:01:00,
2013-03-06 11:11:00,39.0,30.0,30.21,NW,318,10.0,10.0,69,0.00,,,1.21,,2013-03-06 17:11:00,
2013-03-06 11:21:00,40.0,30.0,30.22,NNW,338,9.0,9.0,68,0.00,,,1.21,,2013-03-06 17:21:00,
2013-03-06 11:32:00,40.0,30.0,30.22,NNW,340,10.0,14.0,68,0.00,,,1.21,,2013-03-06 17:32:00,
2013-03-06 11:41:00,40.0,30.0,30.22,NNW,340,10.0,14.0,68,0.00,,,1.21,,2013-03-06 17:41:00,
2013-03-06 11:52:00,40.0,30.0,30.22,NW,322,9.0,9.0,67,0.00,,,1.21,,2013-03-06 17:52:00,
2013-03-06 12:02:00,41.0,31.0,30.22,WNW,290,12.0,12.0,67,0.00,,,1.21,,2013-03-06 18:02:00,
2013-03-06 12:28:00,42.0,32.0,30.22,North,352,6.0,8.0,67,0.00,,,1.21,,2013-03-06 18:28:00,
2013-03-06 12:42:00,43.0,32.0,30.21,NNE,32,8.0,8.0,65,0.00,,,1.21,,2013-03-06 18:42:00,
2013-03-06 12:52:00,43.0,32.0,30.21,WNW,291,9.0,11.0,65,0.00,,,1.21,,2013-03-06 18:52:00,
2013-03-06 13:02:00,43.0,32.0,30.21,North,359,10.0,10.0,65,0.00,,,1.21,,2013-03-06 19:02:00,
2013-03-06 13:11:00,43.0,32.0,30.21,North,359,10.0,10.0,65,0.00,,,1.21,,2013-03-06 19:11:00,
2013-03-06 13:21:00,44.0,33.0,30.20,ENE,68,7.0,7.0,65,0.00,,,1.21,,2013-03-06 19:21:00,
2013-03-06 13:32:00,45.0,33.0,30.20,North,8,8.0,8.0,63,0.00,,,1.21,,2013-03-06 19:32:00,
2013-03-06 13:43:00,45.0,33.0,30.20,North,8,8.0,8.0,63,0.00,,,1.21,,2013-03-06 19:43:00,
2013-03-06 13:53:00,45.0,33.0,30.20,NW,315,9.0,9.0,62,0.00,,,1.21,,2013-03-06 19:53:00,
2013-03-06 14:01:00,45.0,33.0,30.20,WNW,293,5.0,6.0,62,0.00,,,1.21,,2013-03-06 20:01:00,
2013-03-06 14:11:00,45.0,33.0,30.20,WNW,293,5.0,6.0,62,0.00,,,1.21,,2013-03-06 20:11:00,
2013-03-06 14:22:00,45.0,33.0,30.20,NW,315,8.0,12.0,62,0.00,,,1.21,,2013-03-06 20:22:00,
2013-03-06 14:32:00,44.0,32.0,30.20,NNE,13,5.0,0.0,63,0.00,,,1.21,,2013-03-06 20:32:00,
2013-03-06 14:42:00,44.0,32.0,30.20,NNE,13,5.0,0.0,63,0.00,,,1.21,,2013-03-06 20:42:00,
2013-03-06 14:53:00,45.0,33.0,30.20,WNW,302,12.0,12.0,63,0.00,,,1.21,,2013-03-06 20:53:00,
2013-03-06 15:02:00,44.0,32.0,30.21,NW,305,6.0,0.0,63,0.00,,,1.21,,2013-03-06 21:02:00,
2013-03-06 15:11:00,44.0,32.0,30.21,NW,305,6.0,0.0,63,0.00,,,1.21,,2013-03-06 21:11:00,
2013-03-06 15:22:00,45.0,33.0,30.21,NNW,328,5.0,7.0,63,0.00,,,1.21,,2013-03-06 21:22:00,
2013-03-06 15:32:00,44.0,32.0,30.21,NW,322,6.0,10.0,63,0.00,,,1.21,,2013-03-06 21:32:00,
2013-03-06 15:42:00,44.0,32.0,30.21,NW,322,6.0,10.0,63,0.00,,,1.21,,2013-03-06 21:42:00,
2013-03-06 15:52:00,44.0,32.0,30.22,NW,318,10.0,10.0,63,0.00,,,1.21,,2013-03-06 21:52:00,
2013-03-06 16:01:00,44.0,32.0,30.23,North,359,8.0,8.0,63,0.00,,,1.21,,2013-03-06 22:01:00,
2013-03-06 16:11:00,44.0,32.0,30.23,North,359,8.0,8.0,63,0.00,,,1.21,,2013-03-06 22:11:00,
2013-03-06 16:21:00,44.0,32.0,30.23,NW,316,11.0,11.0,63,0.00,,,1.21,,2013-03-06 22:21:00,
2013-03-06 16:32:00,44.0,33.0,30.23,North,4,2.0,3.0,64,0.00,,,1.21,,2013-03-06 22:32:00,
2013-03-06 16:41:00,44.0,33.0,30.23,North,4,2.0,3.0,64,0.00,,,1.21,,2013-03-06 22:41:00,
2013-03-06 16:51:00,43.0,32.0,30.24,WNW,298,8.0,8.0,64,0.00,,,1.21,,2013-03-06 22:51:00,
2013-03-06 17:01:00,43.0,32.0,30.23,NW,316,6.0,6.0,64,0.00,,,1.21,,2013-03-06 23:01:00,
2013-03-06 17:11:00,43.0,32.0,30.23,NW,316,6.0,6.0,64,0.00,,,1.21,,2013-03-06 23:11:00,
2013-03-06 17:21:00,43.0,32.0,30.23,NW,322,4.0,4.0,65,0.00,,,1.21,,2013-03-06 23:21:00,
2013-03-06 17:32:00,43.0,32.0,30.24,West,271,0.0,5.0,65,0.00,,,1.21,,2013-03-06 23:32:00,
2013-03-06 17:42:00,42.0,31.0,30.24,WNW,298,5.0,6.0,65,0.00,,,1.21,,2013-03-06 23:42:00,
2013-03-06 17:52:00,42.0,31.0,30.24,WNW,298,5.0,6.0,65,0.00,,,1.21,,2013-03-06 23:52:00,
2013-03-06 18:01:00,42.0,31.0,30.24,WNW,290,2.0,0.0,66,0.00,,,1.21,,2013-03-07 00:01:00,
2013-03-06 18:11:00,42.0,31.0,30.24,WNW,290,2.0,0.0,66,0.00,,,1.21,,2013-03-07 00:11:00,
2013-03-06 18:21:00,42.0,32.0,30.24,NNW,328,1.0,6.0,67,0.00,,,1.21,,2013-03-07 00:21:00,
2013-03-06 18:32:00,42.0,32.0,30.24,NNW,328,1.0,6.0,67,0.00,,,1.21,,2013-03-07 00:32:00,
2013-03-06 18:41:00,42.0,32.0,30.24,NNW,328,1.0,6.0,67,0.00,,,1.21,,2013-03-07 00:41:00,
2013-03-06 18:52:00,40.0,31.0,30.25,NNW,330,0.0,0.0,69,0.00,,,1.21,,2013-03-07 00:52:00,
2013-03-06 19:01:00,40.0,31.0,30.25,NW,308,5.0,5.0,70,0.00,,,1.21,,2013-03-07 01:01:00,
2013-03-06 19:11:00,40.0,31.0,30.25,NW,308,5.0,5.0,70,0.00,,,1.21,,2013-03-07 01:11:00,
2013-03-06 19:21:00,39.0,30.0,30.24,NW,315,3.0,6.0,71,0.00,,,1.21,,2013-03-07 01:21:00,
2013-03-06 19:31:00,39.0,31.0,30.24,North,359,0.0,0.0,72,0.00,,,1.21,,2013-03-07 01:31:00,
2013-03-06 19:41:00,39.0,31.0,30.24,North,359,0.0,0.0,72,0.00,,,1.21,,2013-03-07 01:41:00,
2013-03-06 19:52:00,38.0,30.0,30.24,NNW,342,0.0,0.0,73,0.00,,,1.21,,2013-03-07 01:52:00,
2013-03-06 20:01:00,37.0,29.0,30.24,NW,322,1.0,0.0,74,0.00,,,1.21,,2013-03-07 02:01:00,
2013-03-06 20:11:00,37.0,29.0,30.24,NW,322,1.0,0.0,74,0.00,,,1.21,,2013-03-07 02:11:00,
2013-03-06 20:21:00,37.0,30.0,30.24,North,349,1.0,0.0,75,0.00,,,1.21,,2013-03-07 02:21:00,
2013-03-06 20:31:00,37.0,30.0,30.24,NW,307,0.0,0.0,76,0.00,,,1.21,,2013-03-07 02:31:00,
2013-03-06 20:41:00,37.0,30.0,30.24,NW,307,0.0,0.0,76,0.00,,,1.21,,2013-03-07 02:41:00,
2013-03-06 20:52:00,37.0,30.0,30.24,NW,307,0.0,0.0,76,0.00,,,1.21,,2013-03-07 02:52:00,
2013-03-06 21:01:00,36.0,29.0,30.23,NNW,346,0.0,0.0,77,0.00,,,1.21,,2013-03-07 03:01:00,
2013-03-06 21:11:00,35.0,29.0,30.23,NNW,346,0.0,0.0,78,0.00,,,1.21,,2013-03-07 03:11:00,
2013-03-06 21:21:00,35.0,29.0,30.23,NNW,346,0.0,0.0,78,0.00,,,1.21,,2013-03-07 03:21:00,
2013-03-06 21:32:00,35.0,29.0,30.24,NNW,346,0.0,0.0,79,0.00,,,1.21,,2013-03-07 03:32:00,
2013-03-06 21:42:00,35.0,29.0,30.24,NNW,346,0.0,0.0,79,0.00,,,1.21,,2013-03-07 03:42:00,
2013-03-06 21:52:00,34.0,28.0,30.25,NNW,346,0.0,0.0,80,0.00,,,1.21,,2013-03-07 03:52:00,
2013-03-06 22:01:00,33.0,28.0,30.25,NNW,346,0.0,0.0,82,0.00,,,1.21,,2013-03-07 04:01:00,
2013-03-06 22:11:00,33.0,28.0,30.25,NNW,346,0.0,0.0,82,0.00,,,1.21,,2013-03-07 04:11:00,
2013-03-06 22:21:00,33.0,28.0,30.26,NNW,346,0.0,0.0,83,0.00,,,1.21,,2013-03-07 04:21:00,
2013-03-06 22:31:00,33.0,28.0,30.27,NNW,346,0.0,0.0,83,0.00,,,1.21,,2013-03-07 04:31:00,
2013-03-06 22:42:00,33.0,28.0,30.27,NNW,346,0.0,0.0,83,0.00,,,1.21,,2013-03-07 04:42:00,
2013-03-06 22:52:00,33.0,29.0,30.26,North,11,0.0,0.0,84,0.00,,,1.21,,2013-03-07 04:52:00,
2013-03-06 23:01:00,33.0,29.0,30.26,North,6,0.0,0.0,84,0.00,,,1.21,,2013-03-07 05:01:00,
2013-03-06 23:12:00,33.0,29.0,30.26,North,6,0.0,0.0,84,0.00,,,1.21,,2013-03-07 05:12:00,
2013-03-06 23:22:00,32.0,28.0,30.26,North,6,0.0,0.0,84,0.00,,,1.21,,2013-03-07 05:22:00,
2013-03-06 23:32:00,32.0,28.0,30.27,NNW,338,0.0,0.0,85,0.00,,,1.21,,2013-03-07 05:32:00,
2013-03-06 23:42:00,32.0,28.0,30.27,NNW,338,0.0,0.0,85,0.00,,,1.21,,2013-03-07 05:42:00,
2013-03-06 23:52:00,32.0,28.0,30.27,NNW,338,0.0,0.0,85,0.00,,,1.21,,2013-03-07 05:52:00,